sat.trackr.live / text

‹ back to catalog

STARLINK-2209

NORAD 47776 · 2021-017BG

PAYLOAD ACTIVE UNKNOWN

§ Identity

Operator
Country
US
Launch date
2021-03-04
Launch site
AFETR
Launch vehicle
Mass (kg)
RCS (m²)

Purposes: comms

External: N2YO · Heavens-Above · Gunter

§ Orbital elements

Epoch: 2026-05-25T03:30:51.374016Z

Period
92.65 min
Inclination
53.1545°
Eccentricity
0.0006877
Mean motion
15.54153273 rev/d
Perigee alt
400.0 km
Apogee alt
409.3 km
Semi-major
6,782.8 km
B*
1.0181e-3
RAAN
198.0397°
Arg perigee
349.1713°
Mean anomaly
10.9149°
Rev number
28,972

§ Raw data

STARLINK-22091 47776U 21017BG  26145.14642794  .00067519  00000+0  10181-2 0  99972 47776  53.1545 198.0397 0006877 349.1713  10.9149 15.54153273289727

JSON: /api/v1/satellites/47776 · /tle

For live sub-satellite position, see the globe view (requires WebGL).

§ Visibility from observer

Set your observer location to see the next 7 days of passes ≥ 10°. The values pass through the URL so the page stays shareable.

No JS? Fill the form by hand. The geolocation button needs JavaScript.